Location: Bluff Heights
(33.7692°N, 118.1592°W)
Time: 18:17:08
(UTC+00:00)

Gblst 52 Del rocket - Pass Details

Date: 29 October 2020
Orbit: 805 x 1365 km, 51.5° (Epoch: 23 November)

Event Time Altitude Azimuth Distance (km) Brightness Sun altitude
Exits shadow 12:24:22 33° 218° (SW) 1,353 4.9 -22.4°
Maximum altitude 12:26:59 82° 135° (SE) 851 4.2 -21.9°
Drops below altitude 10° 12:32:57 10° 49° (NE) 2,584 7.3 -20.6°
Sets 12:35:39 0° 48° (NE) 3,603 8.2 -20.1°
